User: anonymous   Login
Location: Linz
(48.3300°N, 14.3000°E)
Time: 22:27:52
(UTC+01:00)
Language:

Tiangong 2 - Orbit

View from above orbital plane
View from above orbital plane
View from above satellite
View from above satellite

Ground track
Ground track

The orbit data is extracted from the following two-line orbital elements,

1 41765U 16057A   18023.49377514  .00004356  00000-0  56576-4 0  9997
2 41765  42.7829 125.2112 0004219 316.4092 163.1261 15.60183584 77377
Epoch (UTC): 23 January 2018 11:51:02
Eccentricity: 0.0004219
inclination: 42.7829°
perigee height: 384 km
apogee height: 390 km
right ascension of ascending node: 125.2112°
argument of perigee: 316.4092°
revolutions per day: 15.60183584
mean anomaly at epoch: 163.1261°
orbit number at epoch: 7737

The dashed part of the orbit path shows where the satellite is in the earth's shadow,  

DLR